Location: Newark
(43.4306°N, 0.3089°E)
Time: 23:20:02
(UTC+00:00)

SR - Pass Details

Date: 01 September 2019
Orbit: 576 x 880 km, 66.7° (Epoch: 20 September)

Event Time Altitude Azimuth Distance (km) Brightness Sun altitude
Rises 20:24:31 0° 312° (NW) 3,362 ? -19.2°
Reaches altitude 10° 20:27:45 10° 293° (WNW) 2,468 ? -19.7°
Maximum altitude 20:31:18 17° 255° (WSW) 2,043 ? -20.3°
Drops below altitude 10° 20:34:55 10° 216° (SW) 2,519 ? -20.8°
Sets 20:38:18 0° 198° (SSW) 3,462 ? -21.3°
